Location: Bais
(48.0096°N, 1.2898°W)
Time: 06:47:55
(UTC+00:00)

Daily predictions for brighter satellites

Satellite Brightness Start Highest point End
(mag) Time Altitude Azimuth Time Altitude Azimuth Time Altitude Azimuth
CENTAUR R/B 3.5 20:36:04 10° WSW 20:42:04 57° NW 20:49:18 10° NE
CARTOSAT-1 4.4 20:41:09 10° SE 20:45:06 36° ENE 20:49:05 10° N
Terra 3.4 20:42:30 10° ESE 20:46:12 23° ENE 20:49:54 10° N
Cosmos 2360 Rocket 2.3 20:41:03 10° S 20:46:36 61° ESE 20:52:10 10° NNE
SPOT 1/Viking Rocket 3.7 20:41:59 10° SSE 20:47:04 65° ENE 20:52:10 10° N
Cosmos 1674 2.8 20:43:47 10° S 20:47:24 53° E 20:51:01 10° NNE
OBJECT-B 3.6 20:45:30 10° SW 20:47:29 15° W 20:49:29 10° NW
CZ-2C R/B 4.1 20:43:36 10° NNE 20:48:16 50° E 20:52:53 10° S
FALCON 9 DEB 3.9 20:45:47 10° SSW 20:48:24 25° SE 20:51:01 10° E
Cosmos 2322 Rocket 2.5 20:44:59 10° SSW 20:50:42 79° WNW 20:56:28 10° NNE
SL-16 R/B 2.8 20:45:10 10° SW 20:50:48 63° WNW 20:56:27 10° NNE
FALCON 9 DEB 3.6 20:48:09 10° SSW 20:50:56 30° SE 20:53:44 10° ENE
Cosmos 1953 2.4 20:47:04 10° N 20:51:09 67° E 20:55:11 10° SSE
SPOT 5 3.8 20:48:57 10° SE 20:53:32 36° ENE 20:57:55 10° N
USA 245 4.3 20:49:10 10° SSE 20:54:15 68° ENE 21:00:14 10° N
Cosmos 1975 Rocket 3.0 20:50:15 10° S 20:54:36 74° E 20:59:01 10° NNE
Cosmos 1802 Rocket 4.3 20:48:54 10° N 20:55:04 55° ENE 21:01:17 10° SSE
Cosmos 1459 Rocket 4.0 20:50:31 10° N 20:56:34 67° E 21:02:36 10° SSE
Cosmos 1741 Rocket 4.5 20:56:10 10° NNW 21:01:21 61° WSW 21:06:33 10° S
Cosmos 1300 4.0 20:59:46 10° NNE 21:03:05 27° ENE 21:06:19 10° SE
Lacrosse 5 4.0 21:00:55 10° W 21:04:09 17° WSW 21:07:21 10° SSW
Resurs 01 Rocket 2.5 21:01:51 10° S 21:06:06 48° W 21:10:23 10° NNW
Meteor 1-16 Rocket 4.2 21:00:48 10° NNW 21:06:17 84° W 21:11:36 10° S
Cosmos 1000 Rocket 4.5 21:04:21 10° S 21:10:28 73° E 21:16:36 10° NNE
Cosmos 1340 3.3 21:07:48 10° SSE 21:11:17 37° E 21:14:47 10° NNE
Cosmos 2322 4.0 21:08:54 10° S 21:14:17 48° ESE 21:19:44 10° NE
Aureole 1 Rocket 4.4 21:08:30 10° NNW 21:14:32 76° WSW 21:22:11 10° SSE
Cosmos 2278 Rocket 3.5 21:10:23 10° NNW 21:15:23 31° NE 21:20:21 10° ESE
SPOT 3 Rocket 4.3 21:10:57 10° S 21:15:59 52° W 21:21:04 10° NNW
COSMOS 2428 3.4 21:10:57 10° S 21:16:06 36° ESE 21:21:17 10° NE
Cosmos 1844 Rocket 3.1 21:11:04 10° NNW 21:16:42 63° WSW 21:22:16 10° SSE
Cosmos 389 Rocket 4.4 21:19:40 10° NNE 21:22:00 17° ENE 21:24:17 10° ESE
Cosmos 1867 4.1 21:18:23 10° NNW 21:23:47 53° NE 21:28:54 11° ESE
Cosmos 968 Rocket 3.8 21:24:11 10° NNW 21:29:13 54° ENE 21:33:29 14° SE
Cosmos 1908 4.1 21:27:51 10° NNW 21:31:35 46° W 21:35:16 10° SSW
JB-3 4.4 21:27:50 10° NNE 21:31:51 89° WSW 21:35:54 10° SSW
Cosmos 1626 2.3 21:30:32 10° SSW 21:34:12 75° W 21:37:55 10° N
Cosmos 1110 Rocket 4.4 21:29:03 10° SSW 21:34:12 68° WNW 21:39:26 10° NNE
Cosmos 1544 Rocket 3.9 21:30:33 10° NNW 21:35:00 68° W 21:39:22 10° S
FALCON 9 DEB 4.1 21:32:43 10° W 21:36:04 51° NNW 21:39:25 10° ENE
Cosmos 2061 Rocket 4.1 21:30:20 10° N 21:36:49 85° E 21:42:50 12° S
Cosmos 2123 Rocket 4.0 21:30:42 10° S 21:36:58 74° E 21:43:18 10° NNE
Meteor 2-10 Rocket 4.1 21:34:05 10° N 21:38:53 41° ENE 21:42:36 16° SE
Cosmos 1455 Rocket 4.4 21:35:10 10° NNW 21:39:18 38° W 21:43:25 10° SSW
Cosmos 1943 Rocket 4.5 21:37:29 10° N 21:40:16 14° NE 21:43:04 10° ENE
Cosmos 2233 Rocket 4.2 21:34:30 10° N 21:40:34 57° ENE 21:45:36 15° SSE
ARIANE 5 R/B 3.0 21:38:34 11° S 21:42:44 64° WSW 21:47:14 10° NNW
Cosmos 1346 Rocket 3.7 21:47:03 18° SE 21:49:19 32° E 21:52:56 10° NNE
Cosmos 405 3.2 21:47:36 10° NNW 21:51:01 63° W 21:53:33 17° S
ATLAS CENTAUR R/B 2.2 21:47:04 10° NW 21:51:14 45° WSW 21:54:30 17° S
Cosmos 2333 4.4 21:47:46 10° SSW 21:53:31 76° WNW 21:59:16 10° NNE
BREEZE-M DEB (TANK) 4.3 21:42:03 10° SW 21:54:32 36° SSE 21:58:31 10° E
ATLAS 3B R/B 2.6 21:49:37 10° SW 21:56:11 88° SE 22:03:01 10° NE
SL-4 R/B 2.6 21:54:39 10° SSW 21:58:22 31° SE 22:01:50 10° E
FALCON 9 DEB 2.8 21:57:09 10° WSW 22:00:16 89° WNW 22:03:26 10° ENE
CZ-4B DEB 4.2 22:03:26 24° S 22:05:10 81° WSW 22:08:21 10° NNW
Cosmos 2016 Rocket 4.4 21:59:16 10° NNW 22:05:15 57° W 22:11:00 11° S
Cosmos 2219 Rocket 2.3 22:00:21 10° SSW 22:06:02 84° WNW 22:11:46 10° NNE
Meteor 2-5 Rocket 3.7 22:01:11 10° S 22:06:43 88° W 22:12:24 10° NNE
Cosmos 1025 Rocket 4.4 22:02:38 10° SW 22:06:44 38° WNW 22:10:48 10° N
Lacrosse 5 rocket 2.4 22:04:13 10° W 22:07:42 41° NNW 22:11:08 10° NE
Cosmos 2333 Rocket 2.5 22:01:58 10° SW 22:07:42 72° WNW 22:13:27 10° NNE
Cosmos 1607 4.3 22:01:21 10° NW 22:07:46 63° NE 22:12:53 16° SE
ERS-1 Rocket 3.5 22:04:07 14° S 22:08:21 52° W 22:13:19 10° NNW
Geosat 4.5 22:04:47 17° S 22:08:28 53° WSW 22:13:24 10° NW
Cosmos 1536 Rocket 4.0 22:05:24 10° SSW 22:09:49 64° WNW 22:14:15 10° N
Cosmos 2228 3.1 22:07:03 10° N 22:11:28 70° ENE 22:14:06 23° SSE
FALCON 9 DEB 3.5 22:12:49 10° WSW 22:15:52 57° NNW 22:18:55 10° ENE
USA 215 3.8 22:14:56 10° ENE 22:20:48 34° SE 22:25:28 15° S
SL-24 R/B 4.4 22:16:12 10° N 22:21:03 78° W 22:24:49 17° SSW
Terra 2.4 22:20:12 17° S 22:23:38 51° W 22:28:17 10° NNW
FALCON 9 DEB 3.4 22:20:49 10° WSW 22:23:54 61° NNW 22:27:00 10° ENE
SL-16 R/B 3.8 22:23:56 15° ESE 22:25:35 17° E 22:29:10 10° ENE
FALCON 9 DEB 3.7 22:23:24 10° W 22:26:28 52° NNW 22:29:31 10° ENE
Cosmos 2237 Rocket 2.5 22:23:45 21° S 22:27:13 47° ESE 22:32:36 10° NE
Cosmos 1455 2.6 22:24:37 10° N 22:28:21 50° ENE 22:29:59 29° SE
Cosmos 1464 Rocket 4.5 22:24:08 10° N 22:30:21 52° ENE 22:34:26 22° SE
Cosmos 1184 Rocket 3.8 22:29:49 28° ESE 22:30:23 30° E 22:33:18 10° NNE
Cosmos 2360 Rocket 4.3 22:26:12 10° WSW 22:31:00 28° NW 22:35:50 10° NNE
SPOT 5 4.2 22:27:29 12° SSW 22:31:36 33° W 22:35:59 10° NNW
H-2A R/B 3.7 22:29:08 10° N 22:33:12 65° WNW 22:36:19 16° SSW
Cosmos 2369 Rocket 4.5 22:30:47 10° N 22:34:39 18° NE 22:38:31 10° E
Cosmos 1503 Rocket 4.0 22:29:23 10° NNW 22:34:48 84° ENE 22:37:58 25° SSE
Meteor 1-24 Rocket 4.1 22:33:33 12° SSW 22:38:33 60° WNW 22:44:02 10° N
GEOS 3 Rocket 4.0 22:38:08 17° ESE 22:42:15 64° NE 22:47:32 10° NW
ATLAS CENTAUR R/B 3.6 22:40:44 25° SSE 22:43:18 40° ESE 22:53:28 10° NE
USA 267 3.7 22:49:11 10° ESE 22:55:37 62° NNE 23:02:03 10° NW
Okean 1-7 Rocket 3.9 22:54:15 31° SSE 22:56:00 50° E 23:00:19 10° NNE
Cosmos 389 Rocket 3.7 22:53:38 10° NNW 22:56:45 33° W 22:58:04 24° SW
GENESIS II 4.3 22:54:50 14° SW 22:58:09 73° NW 23:02:04 10° NE
BREEZE-M DEB (TANK) 2.6 22:55:27 10° W 22:58:28 80° N 23:06:32 10° E
Cosmos 2278 Rocket 2.5 22:54:15 10° NW 22:59:46 55° WSW 23:02:45 27° S
COSMOS 2428 3.8 22:54:49 10° SW 23:00:17 44° NW 23:05:47 10° NNE
Cosmos 1726 Rocket 4.0 22:57:28 10° NNW 23:01:51 56° W 23:03:59 28° SSW
Cosmos 2297 4.4 22:56:47 10° NNW 23:02:15 47° NE 23:06:11 18° ESE
Cosmos 2058 Rocket 3.0 22:58:03 10° N 23:02:31 89° W 23:04:24 34° S
Centaur D AC-29 4.4 23:02:51 10° WSW 23:06:23 11° SW 23:08:53 10° SW
Cosmos 2034 Rocket 4.1 23:00:23 10° N 23:06:34 67° ENE 23:10:01 27° SSE
NOSS 0 Rocket 4.1 23:01:59 10° SW 23:08:11 73° WNW 23:14:27 10° NNE
SJ 16-02 2.3 23:11:05 10° N 23:15:14 40° ENE 23:17:27 23° ESE
Meteor 1-21 Rocket 4.2 23:14:30 28° S 23:17:38 86° E 23:23:26 10° NNE
Cosmos 1777 Rocket 4.0 23:15:01 10° NNW 23:20:21 87° ENE 23:22:56 31° SSE
Spot 4 4.0 23:20:17 32° S 23:22:24 64° WSW 23:27:10 10° NNW
Cosmos 1892 Rocket 4.2 23:21:07 23° SW 23:23:35 50° WNW 23:27:57 10° N
GP-B 4.2 23:20:20 10° NNE 23:24:25 34° E 23:26:01 26° SE
Cosmos 1943 Rocket 2.6 23:19:55 10° NNW 23:25:20 54° ENE 23:28:53 21° SE
Meteor 1-4 Rocket 2.4 23:22:26 10° N 23:25:54 70° E 23:26:36 51° SE
Cosmos 1441 Rocket 3.3 23:29:44 38° SSW 23:31:04 68° WNW 23:34:53 10° N
MTI 4.3 23:29:34 10° NNE 23:32:27 40° E 23:32:27 40° E
ALOS 2 2.6 23:35:17 39° S 23:36:53 77° WSW 23:41:18 10° NNW
Tsikada Rocket 4.0 23:34:13 30° S 23:37:24 69° E 23:43:32 10° NNE
SL-4 R/B 2.0 23:33:44 10° WSW 23:37:46 75° NNW 23:41:30 10° ENE
Cosmos 1980 4.4 23:33:00 11° SW 23:38:19 52° NW 23:43:53 10° NNE
Lacrosse 4 Rocket 4.4 23:37:38 10° NNE 23:38:50 11° NNE 23:40:02 10° NE
USA 229 DEB 4.3 23:38:46 28° SSE 23:41:05 36° ESE 23:47:08 10° NE
USA 229 4.3 23:38:53 28° SSE 23:41:12 36° ESE 23:47:14 10° NE
Cosmos 1703 4.0 23:44:02 30° SW 23:45:35 46° WNW 23:49:26 10° N
Lacrosse 5 rocket 3.9 23:44:47 10° NW 23:47:30 20° N 23:50:13 10° NE
ATLAS 3B R/B 4.4 23:41:51 10° W 23:47:43 32° NNW 23:53:48 10° NE
NOSS 3-1 (C) 3.3 23:46:44 33° S 23:49:02 57° ESE 23:55:08 10° NE
Cosmos 1626 Rocket 3.6 23:49:24 36° SSW 23:51:08 73° W 23:55:35 10° N
Cosmos 724 4.4 23:45:17 10° NW 23:51:25 66° WSW 23:54:20 31° SSE
Elektron 1 3.5 23:50:37 10° NW 23:53:37 72° SW 23:53:44 70° SSW
Cosmos 1408 4.1 23:53:09 22° ESE 23:53:54 24° E 23:56:53 10° NE
OPS 6432 4.2 23:51:24 10° NW 23:54:24 88° NE 23:54:59 58° SE
Cosmos 1825 4.3 23:54:28 14° ESE 23:55:30 15° E 23:57:46 10° NE
